Weather History for KMRB - February, 2013

Change the Weather History Date:

Wednesday, February 20, 2013

  Actual Average Record
Temperature  
Mean Temperature 30 °F 35 °F  
Max Temperature 35 °F 44 °F 70 °F (1939)
Min Temperature 24 °F 25 °F 0 °F (1979)
Degree Days  
Heating Degree Days 35 30  
Month to date heating degree days 628 640  
Since 1 July heating degree days 3404 3723  
Cooling Degree Days 0 0  
Month to date cooling degree days 0 0  
Year to date cooling degree days 0 0  
Moisture  
Dew Point 10 °F    
Average Humidity 44    
Maximum Humidity 50    
Minimum Humidity 38    
Precipitation  
Precipitation 0.00 in 0.08 in 2.25 in (1927)
Month to date precipitation 0.50 1.64  
Year to date precipitation 3.90 4.08  
Sea Level Pressure  
Sea Level Pressure 30.04 in    
Wind  
Wind Speed 17 mph (WNW)    
Max Wind Speed 27 mph    
Max Gust Speed 43 mph    
Visibility 10 miles    
Events      
T = Trace of Precipitation, MM = Missing Value Source: NWS Daily Summary

Daily Weather History Graph

Daily Weather History Graph

Search for Another Location

Airport or City:

Trip Planner

Search our weather history database for the weather conditions in past years. The results will help you decide how hot, cold, wet, or windy it might be!

Date:

Astronomy

Feb. 20, 2013 Rise Set
Actual Time 6:57 AM EST 5:54 PM EST
Civil Twilight 6:29 AM EST 6:21 PM EST
Nautical Twilight 5:58 AM EST 6:53 PM EST
Astronomical Twilight 5:27 AM EST 7:24 PM EST
Moon 1:15 PM EST (2/20) 3:14 AM EST (2/20)
Length of Visible Light 11h 52m
Length of Day
10h 57m
Waxing Gibbous, 76% of the Moon is Illuminated
Feb 20
Waxing Gibbous
Feb 25
Full
Mar 4
Last Quarter
Mar 11
New
Mar 19
First Quarter

Hourly Weather History & Observations

Time (EST) Temp. Windchill Dew Point Humidity Pressure Visibility Wind Dir Wind Speed Gust Speed Precip Events Conditions
12:53 AM 34.0 °F 21.0 °F 15.1 °F 46% 29.88 in 10.0 mi West 26.5 mph 34.5 mph N/A   Mostly Cloudy
1:53 AM 33.1 °F 21.5 °F 15.1 °F 48% 29.90 in 10.0 mi West 19.6 mph 26.5 mph N/A   Overcast
2:53 AM 32.0 °F 20.1 °F 12.0 °F 44% 29.90 in 10.0 mi West 19.6 mph 34.5 mph N/A   Mostly Cloudy
3:53 AM 30.9 °F 20.2 °F 10.9 °F 43% 29.92 in 10.0 mi WNW 15.0 mph 33.4 mph N/A   Mostly Cloudy
4:53 AM 30.9 °F 18.7 °F 10.0 °F 42% 29.95 in 10.0 mi West 19.6 mph 29.9 mph N/A   Overcast
5:53 AM 28.9 °F 16.1 °F 10.0 °F 45% 29.97 in 10.0 mi WNW 19.6 mph 28.8 mph N/A   Overcast
6:53 AM 28.9 °F 19.2 °F 9.0 °F 43% 30.00 in 10.0 mi WNW 11.5 mph 32.2 mph N/A   Overcast
7:53 AM 28.0 °F 19.3 °F 10.0 °F 47% 30.02 in 10.0 mi West 9.2 mph 19.6 mph N/A   Overcast
8:53 AM 28.9 °F 18.2 °F 10.0 °F 45% 30.03 in 10.0 mi WNW 13.8 mph 17.3 mph N/A   Overcast
9:53 AM 28.9 °F 17.7 °F 12.0 °F 49% 30.01 in 10.0 mi WNW 15.0 mph 20.7 mph N/A   Overcast
10:53 AM 30.0 °F 18.3 °F 10.9 °F 45% 30.02 in 10.0 mi WNW 17.3 mph 26.5 mph N/A   Overcast
11:53 AM 30.0 °F 19.5 °F 10.9 °F 45% 30.03 in 10.0 mi West 13.8 mph 24.2 mph N/A   Overcast
12:53 PM 30.9 °F 20.2 °F 10.0 °F 42% 30.02 in 10.0 mi WNW 15.0 mph 21.9 mph N/A   Overcast
1:53 PM 33.1 °F 22.2 °F 10.9 °F 40% 30.02 in 10.0 mi West 17.3 mph 23.0 mph N/A   Overcast
2:53 PM 33.1 °F 23.0 °F 10.9 °F 40% 30.03 in 10.0 mi WNW 15.0 mph 26.5 mph N/A   Mostly Cloudy
3:53 PM 33.1 °F 21.2 °F 10.9 °F 40% 30.07 in 10.0 mi NW 20.7 mph 28.8 mph N/A   Overcast
4:53 PM 28.9 °F 15.8 °F 8.1 °F 41% 30.10 in 10.0 mi WNW 20.7 mph 29.9 mph N/A   Scattered Clouds
5:53 PM 28.0 °F 17.5 °F 8.1 °F 43% 30.14 in 10.0 mi NW 12.7 mph 20.7 mph N/A   Overcast
6:53 PM 26.1 °F 15.6 °F 6.1 °F 43% 30.16 in 10.0 mi NW 11.5 mph - N/A   Overcast
7:53 PM 25.0 °F 13.1 °F 6.1 °F 45% 30.16 in 10.0 mi WNW 13.8 mph 25.3 mph N/A   Scattered Clouds
8:53 PM 24.1 °F 11.5 °F 6.1 °F 46% 30.17 in 10.0 mi WNW 15.0 mph 24.2 mph N/A   Partly Cloudy
9:53 PM 24.1 °F 13.1 °F 6.1 °F 46% 30.18 in 10.0 mi WNW 11.5 mph 19.6 mph N/A   Overcast
10:53 PM 25.0 °F 13.6 °F 7.0 °F 46% 30.18 in 10.0 mi WNW 12.7 mph 23.0 mph N/A   Overcast
11:53 PM 25.0 °F 13.6 °F 7.0 °F 46% 30.17 in 10.0 mi WNW 12.7 mph 20.7 mph N/A   Overcast